This demonstration page uses our WeatherBlox Daily Observations layout. Learn more.

Left ArrowRight Arrow

39.01783, -85.05884

Hourly Observations for March 5, 2021

Temp ( °F °C ) Dew Point ( °F °C ) Humidity (%) Winds ( mph kmh ) Pressure ( in mb ) Visibility ( mi km ) Precip ( " mm )
12:52 am 00:52 Clear 30 -1.1 18 -7.8 61 61 NNE 8 13 30.26 1025 10 16 0.00 0.00
1:52 am 01:52 Clear 29 -1.7 19 -7.2 66 66 NNE 12 19 30.27 1025 10 16 0.00 0.00
2:52 am 02:52 Clear 28 -2.2 19 -7.2 69 69 NNE 8 13 30.27 1025 10 16 0.00 0.00
3:52 am 03:52 Clear 27 -2.8 19 -7.2 72 72 NNE 9 15 30.28 1025 10 16 0.00 0.00
4:52 am 04:52 Clear 24 -4.4 18 -7.8 77 77 N 7 11 30.29 1026 10 16 0.00 0.00
5:52 am 05:52 Clear 24 -4.4 19 -7.2 81 81 N 3 6 30.31 1026 10 16 0.00 0.00
6:52 am 06:52 Mostly Clear 25 -3.9 19 -7.2 78 78 N 5 7 30.31 1026 9 14 0.00 0.00
7:52 am 07:52 Partly Cloudy 27 -2.8 20 -6.7 75 75 NNE 6 9 30.31 1027 10 16 0.00 0.00
8:52 am 08:52 Mostly Sunny 30 -1.1 19 -7.2 64 64 NNE 3 6 30.34 1027 10 16 0.00 0.00
9:52 am 09:52 Mostly Cloudy 33 0.6 16 -8.9 49 49 NNE 5 7 30.34 1027 10 16 0.00 0.00
10:52 am 10:52 Mostly Cloudy 36 2.2 14 -10 40 40 N 12 19 30.34 1027 10 16 0.00 0.00
11:52 am 11:52 Mostly Cloudy 40 4.4 15 -9.4 36 36 N 6 9 30.34 1028 10 16 0.00 0.00
12:52 pm 12:52 Mostly Cloudy 41 5 16 -8.9 36 36 NNW 6 9 30.32 1027 10 16 0.00 0.00
1:52 pm 13:52 Partly Cloudy 44 6.7 17 -8.3 34 34 NNW 10 17 30.29 1026 10 16 0.00 0.00
2:52 pm 14:52 Partly Cloudy 47 8.3 17 -8.3 30 30 N 5 7 30.26 1025 10 16 0.00 0.00
3:52 pm 15:52 Mostly Sunny 47 8.3 18 -7.8 31 31 NNW 13 20 30.26 1025 10 16 0.00 0.00
4:52 pm 16:52 Mostly Sunny 47 8.3 18 -7.8 31 31 NNW 14 22 30.26 1025 10 16 0.00 0.00
5:52 pm 17:52 Partly Cloudy 45 7.2 19 -7.2 35 35 N 14 22 30.26 1025 10 16 0.00 0.00
6:52 pm 18:52 Mostly Cloudy 41 5 19 -7.2 41 41 N 9 15 30.26 1025 10 16 0.00 0.00
7:52 pm 19:52 Mostly Cloudy 40 4.4 19 -7.2 43 43 NNW 6 9 30.26 1025 10 16 0.00 0.00
8:52 pm 20:52 Partly Cloudy 36 2.2 20 -6.7 52 52 WNW 5 7 30.27 1025 10 16 0.00 0.00
9:52 pm 21:52 Mostly Clear 35 1.7 20 -6.7 54 54 W 8 13 30.27 1025 10 16 0.00 0.00
10:52 pm 22:52 Clear 33 0.6 20 -6.7 58 58 W 9 15 30.27 1025 10 16 0.00 0.00
11:52 pm 23:52 Mostly Clear 35 1.7 21 -6.1 57 57 NW 9 15 30.27 1025 10 16 0.00 0.00

Powered by AerisWeather